This is the latest recevied weather packets stored in our database for station/object KI4FRU. If no packets are shown the sender has not sent any weather packets the latest 10 day(s).
| Time | Temp. | Humidity | Pressure | Rain* | Wind** | Luminosity | Snow |
|---|---|---|---|---|---|---|---|
| 1777950826 | 16.11° C | 70% | 1053.8 hPa | 0 mm | - | 0 W/m² | - |
| 1777950523 | 16.67° C | 67% | 1053.8 hPa | 0 mm | - | 0 W/m² | - |
| 1777950218 | 16.67° C | 66% | 1053.7 hPa | 0 mm | - | 0 W/m² | - |
| 1777949914 | 17.22° C | 64% | 1054 hPa | 0 mm | - | 0 W/m² | - |
| 1777949612 | 17.22° C | 63% | 1053.8 hPa | 0 mm | - | 0 W/m² | - |
| 1777949310 | 17.78° C | 63% | 1053.8 hPa | 0 mm | - | 0 W/m² | - |
| 1777949008 | 17.78° C | 61% | 1054.1 hPa | 0 mm | - | 0 W/m² | - |
| 1777948705 | 18.33° C | 61% | 1053.8 hPa | 0 mm | - | 0 W/m² | - |
| 1777948401 | 18.33° C | 59% | 1053.8 hPa | 0 mm | - | 0 W/m² | - |
| 1777948099 | 18.89° C | 59% | 1053.8 hPa | 0 mm | - | 0 W/m² | - |
| 1777947795 | 18.89° C | 58% | 1053.8 hPa | 0 mm | - | 0 W/m² | - |
| 1777947493 | 18.33° C | 59% | 1054 hPa | 0 mm | - | 0 W/m² | - |
| 1777947189 | 18.33° C | 59% | 1053.7 hPa | 0 mm | - | 0 W/m² | - |
| 1777946885 | 18.33° C | 59% | 1053.6 hPa | 0 mm | - | 0 W/m² | - |
| 1777946581 | 18.89° C | 59% | 1053.5 hPa | 0 mm | - | 0 W/m² | - |
| 1777946278 | 18.89° C | 58% | 1053.5 hPa | 0 mm | - | 0 W/m² | - |
| 1777945975 | 18.33° C | 58% | 1053.3 hPa | 0 mm | - | 0 W/m² | - |
| 1777945673 | 18.89° C | 59% | 1053.3 hPa | 0 mm | - | 0 W/m² | - |
| 1777945370 | 18.89° C | 59% | 1053.4 hPa | 0 mm | - | 0 W/m² | - |
| 1777945066 | 18.89° C | 57% | 1053.2 hPa | 0 mm | - | 0 W/m² | - |
| 1777944762 | 18.89° C | 60% | 1053.2 hPa | 0 mm | - | 0 W/m² | - |
| 1777944461 | 18.33° C | 61% | 1053.4 hPa | 0 mm | - | 0 W/m² | - |
| 1777944158 | 18.33° C | 63% | 1053.2 hPa | 0 mm | - | 0 W/m² | - |
| 1777943853 | 18.33° C | 63% | 1053.2 hPa | 0 mm | - | 0 W/m² | - |
| 1777943551 | 17.78° C | 64% | 1053.4 hPa | 0 mm | - | 0 W/m² | - |
* Rain latest hour (hover to see other rain measurements)
** Current wind speed in m/s (hover to see current wind gust speed)